Notices

What's New in latest Release from April 7th, 2021:

- Updated Glossary, including Speed of Maximum Gust, and Total Hourly Precipitation

- Updated national and regional climate services offices contacts and prices information

- Addition of station inventory lists for 1981-2010, 1971-2000, and 1961-1990 Normals.

If you haven't already, please take our survey and provide feedback about our website: https://eccc.sondage-survey.ca/f/LanguageSelection.aspx?s=442ca660-fcf1-47c0-95a9-59707d6fd709

Hourly Data Report for July 13, 2019

TORONTO CITY
ONTARIO
Current Station Operator: ECCC - MSC

43°40'00.000" N
79°24'00.000" W
112.50 m
6158355
71508
XTO

Download Data

Hourly Data (July 2019)
Hourly Data Report for July 13, 2019
TIME
LST
Temp Definition
°C
Dew Point Definition
°C
Rel Hum Definition
%
Precip. Amount Definition
mm

Wind Dir Definition
10's deg

Wind Spd Definition
km/h
Visibility Definition
km
Stn Press Definition
kPa
Hmdx Definition


Wind Chill Definition


Weather Definition


00:00 18.7 13.9 74 0.0       99.90     LegendNANA
01:00 18.0 13.8 77 0.0       99.92     LegendNANA
02:00 17.4 13.7 79 0.0       99.95     LegendNANA
03:00 18.2 14.2 77 0.0       99.94     LegendNANA
04:00 17.9 13.9 77 0.0       99.95     LegendNANA
05:00 17.9 13.3 74 0.0       99.96     LegendNANA
06:00 18.7 13.5 72 0.0       99.96     LegendNANA
07:00 19.9 14.4 71 0.0       99.98     LegendNANA
08:00 22.0 14.8 64 0.0       100.00 26   LegendNANA
09:00 23.4 15.4 61 0.0       99.94 28   LegendNANA
10:00 24.9 16.8 61 0.0       99.92 30   LegendNANA
11:00 26.5 17.8 59 0.0       99.91 32   LegendNANA
12:00 26.9 16.5 53 0.0       99.87 32   LegendNANA
13:00 27.7 16.3 50 0.0       99.80 33   LegendNANA
14:00 28.1 17.2 52 0.0       99.73 34   LegendNANA
15:00 21.1 18.1 83 15.9       99.79 27   LegendNANA
16:00 22.7 20.5 88 0.8       99.80 31   LegendNANA
17:00 23.7 20.2 81 0.0       99.77 31   LegendNANA
18:00 24.8 21.0 79 0.0       99.77 33   LegendNANA
19:00 23.8 19.7 78 0.0       99.78 31   LegendNANA
20:00 23.5 20.0 81 0.0       99.79 31   LegendNANA
21:00 23.5 20.1 81 0.0       99.88 31   LegendNANA
22:00 23.7 16.5 64 0.0       99.94 29   LegendNANA
23:00 23.3 13.4 54 0.0       99.99 26   LegendNANA

Notes on Data Quality.

Legend

  • E = Estimated
  • M = Missing
  • NA = Not Available*
  • [empty] = Indicates an unobserved value
Date modified: